St. Augustine, FL

4:19 AM EDT on March 24, 2017 (GMT -0400)
Saint Augustine

Weather History for KSGJ - October, 2013

Change the Weather History Date:

Friday, October 11, 2013

  Actual Average Record
Temperature  
Mean Temperature 73 °F -  
Max Temperature 82 °F 78 °F 89 °F (1980)
Min Temperature 64 °F 65 °F 51 °F (2000)
Cooling Degree Days 8    
Growing Degree Days 23 (Base 50)    
Moisture  
Dew Point 62 °F    
Average Humidity 72    
Maximum Humidity 97    
Minimum Humidity 42    
Precipitation  
Precipitation 0.00 in - - ()
Sea Level Pressure  
Sea Level Pressure 30.01 in    
Wind  
Wind Speed 5 mph (West)    
Max Wind Speed 10 mph    
Max Gust Speed 16 mph    
Visibility 10 miles    
Events      
Averages and records for this station are not official NWS values.
T = Trace of Precipitation, MM = Missing Value Source: NWS Daily Summary

Daily Weather History Graph

Daily Weather History Graph

Search for Another Location

Airport or City:

Trip Planner

Search our weather history database for the weather conditions in past years. The results will help you decide how hot, cold, wet, or windy it might be!

Date:

Astronomy

Oct. 11, 2013 Rise Set
Actual Time 7:24 AM EDT 6:58 PM EDT
Civil Twilight 7:00 AM EDT 7:22 PM EDT
Nautical Twilight 6:33 AM EDT 7:50 PM EDT
Astronomical Twilight 6:05 AM EDT 8:18 PM EDT
Moon 1:52 PM EDT (10/11) No Moon Set
Length of Visible Light 12h 21m
Length of Day
11h 33m
Waxing Crescent, 47% of the Moon is Illuminated
Oct 11
Waxing Crescent
Oct 11
First Quarter
Oct 18
Full
Oct 26
Last Quarter
Nov 3
New

Hourly Weather History & Observations

Time (EDT) Temp. Heat Index Dew Point Humidity Pressure Visibility Wind Dir Wind Speed Gust Speed Precip Events Conditions
12:58 AM 66.0 °F - 63.0 °F 90% 30.01 in 10.0 mi Calm Calm - N/A   Clear
1:58 AM 66.0 °F - 63.0 °F 90% 30.00 in 10.0 mi WSW 8.1 mph - N/A   Clear
2:58 AM 66.0 °F - 63.0 °F 90% 30.00 in 10.0 mi WSW 5.8 mph - N/A   Clear
3:58 AM 66.0 °F - 64.0 °F 93% 29.99 in 10.0 mi West 8.1 mph - N/A   Clear
4:58 AM 64.9 °F - 64.0 °F 97% 29.99 in 10.0 mi West 8.1 mph - N/A   Partly Cloudy
5:58 AM 64.9 °F - 64.0 °F 97% 30.01 in 10.0 mi West 9.2 mph - N/A   Clear
6:58 AM 64.9 °F - 63.0 °F 93% 30.02 in 10.0 mi West 8.1 mph - N/A   Clear
7:58 AM 64.9 °F - 64.0 °F 97% 30.04 in 10.0 mi West 5.8 mph - N/A   Clear
8:58 AM 69.1 °F - 66.0 °F 90% 30.06 in 10.0 mi WNW 4.6 mph - N/A   Clear
9:58 AM 73.9 °F - 66.0 °F 76% 30.06 in 10.0 mi West 5.8 mph - N/A   Clear
10:58 AM 78.1 °F - 62.1 °F 58% 30.06 in 10.0 mi WNW 5.8 mph - N/A   Clear
11:58 AM 80.1 °F 81.1 °F 61.0 °F 52% 30.05 in 10.0 mi Variable 6.9 mph - N/A   Clear
12:58 PM 82.0 °F 82.1 °F 59.0 °F 45% 30.03 in 10.0 mi WNW 10.4 mph - N/A   Partly Cloudy
1:58 PM 82.9 °F 82.6 °F 57.9 °F 42% 30.00 in 10.0 mi NW 8.1 mph 16.1 mph N/A   Mostly Cloudy
2:58 PM 82.9 °F 82.6 °F 57.9 °F 42% 29.99 in 10.0 mi WNW 5.8 mph - N/A   Scattered Clouds
3:58 PM 82.9 °F 82.6 °F 57.9 °F 42% 29.98 in 10.0 mi WNW 8.1 mph - N/A   Clear
4:58 PM 82.9 °F 82.6 °F 57.9 °F 42% 29.97 in 10.0 mi NW 10.4 mph - N/A   Clear
5:58 PM 81.0 °F 81.1 °F 57.9 °F 45% 29.96 in 10.0 mi Variable 4.6 mph - N/A   Clear
6:58 PM 79.0 °F - 60.1 °F 52% 29.97 in 10.0 mi West 3.5 mph - N/A   Clear
7:58 PM 73.0 °F - 63.0 °F 71% 29.98 in 10.0 mi Calm Calm - N/A   Clear
8:58 PM 70.0 °F - 62.1 °F 76% 29.99 in 10.0 mi Calm Calm - N/A   Clear
9:58 PM 69.1 °F - 62.1 °F 78% 30.00 in 10.0 mi Calm Calm - N/A   Clear
10:58 PM 69.1 °F - 64.0 °F 84% 30.01 in 10.0 mi Calm Calm - N/A   Overcast
11:58 PM 69.1 °F - 64.0 °F 84% 30.01 in 10.0 mi SSW 4.6 mph - N/A   Mostly Cloudy